| time (UTC) | temp F | wind direction | speed knots | gust knots | rain 1hr in | rain 24hr in | rain mn in | humidity % | barometer mb |
| 20260903053532 | 54 | 140 | 0.9 | 1.7 | 0.00 | 0.19 | 0.19 | 95 | 1010.4 |
| 20260903053028 | 54 | 135 | 1.7 | 1.7 | 0.00 | 0.19 | 0.19 | 95 | 1010.4 |
| 20260903052524 | 54 | 147 | 0.0 | 1.7 | 0.00 | 0.19 | 0.19 | 95 | 1010.5 |
| 20260903052019 | 54 | 149 | 0.9 | 1.7 | 0.00 | 0.19 | 0.19 | 95 | 1010.3 |
| 20260903051514 | 54 | 109 | 2.6 | 2.6 | 0.00 | 0.19 | 0.19 | 95 | 1010.3 |
| 20260903051010 | 54 | 141 | 1.7 | 2.6 | 0.00 | 0.19 | 0.19 | 95 | 1010.4 |
| 20260903050509 | 54 | 155 | 0.0 | 0.9 | 0.00 | 0.19 | 0.19 | 95 | 1010.4 |
| 20260903050005 | 54 | 146 | 0.0 | 0.0 | 0.00 | 0.19 | 0.19 | 94 | 1010.5 |
| 20260903045459 | 54 | 139 | 1.7 | 1.7 | 0.00 | 0.19 | 0.19 | 94 | 1010.2 |
| 20260903044955 | 54 | 127 | 0.9 | 2.6 | 0.00 | 0.19 | 0.19 | 94 | 1010.4 |
| 20260903044451 | 55 | 135 | 0.9 | 1.7 | 0.00 | 0.19 | 0.19 | 94 | 1010.3 |
| 20260903043947 | 55 | 132 | 1.7 | 1.7 | 0.00 | 0.19 | 0.19 | 94 | 1010.3 |
| 20260903043443 | 55 | 136 | 1.7 | 1.7 | 0.00 | 0.19 | 0.19 | 93 | 1010.3 |
| 20260903042941 | 55 | 143 | 0.0 | 0.9 | 0.00 | 0.19 | 0.19 | 93 | 1010.2 |
| 20260903042436 | 55 | 136 | 1.7 | 1.7 | 0.00 | 0.19 | 0.19 | 92 | 1010.2 |
| 20260903041932 | 55 | 139 | 2.6 | 2.6 | 0.00 | 0.19 | 0.19 | 92 | 1010.0 |
| 20260903041428 | 56 | 133 | 1.7 | 2.6 | 0.00 | 0.19 | 0.19 | 91 | 1010.2 |
| 20260903040924 | 56 | 131 | 1.7 | 2.6 | 0.00 | 0.19 | 0.19 | 90 | 1010.0 |
| 20260903040423 | 57 | 156 | 0.9 | 1.7 | 0.00 | 0.19 | 0.19 | 88 | 1009.9 |
| 20260903035919 | 57 | 157 | 0.0 | 0.0 | 0.00 | 0.19 | 0.19 | 87 | 1010.0 |
| 20260903035415 | 58 | 153 | 0.0 | 0.0 | 0.00 | 0.19 | 0.19 | 86 | 1009.8 |
| 20260903034914 | 58 | 167 | 0.0 | 0.9 | 0.00 | 0.19 | 0.19 | 86 | 1009.9 |
| 20260903034409 | 58 | 150 | 0.0 | 0.0 | 0.00 | 0.19 | 0.19 | 85 | 1009.7 |
| 20260903033905 | 58 | 135 | 0.9 | 2.6 | 0.00 | 0.19 | 0.19 | 85 | 1009.7 |
| 20260903033359 | 58 | 161 | 0.0 | 0.9 | 0.00 | 0.19 | 0.19 | 87 | 1009.6 |
| 20260903032854 | 57 | 137 | 0.0 | 1.7 | 0.00 | 0.19 | 0.19 | 89 | 1009.4 |
| 20260903032350 | 57 | 180 | 1.7 | 1.7 | 0.00 | 0.19 | 0.19 | 92 | 1009.4 |
| 20260903031845 | 57 | 100 | 0.9 | 1.7 | 0.00 | 0.19 | 0.19 | 94 | 1009.6 |
| 20260903031344 | 56 | 83 | 1.7 | 8.7 | 0.00 | 0.19 | 0.19 | 94 | 1009.5 |
| 20260903030840 | 56 | 162 | 0.0 | 0.9 | 0.00 | 0.19 | 0.19 | 94 | 1009.3 |
| 20260903030336 | 56 | 156 | 0.0 | 0.9 | 0.00 | 0.19 | 0.19 | 94 | 1009.2 |
| 20260903025832 | 56 | 149 | 0.0 | 0.9 | 0.00 | 0.19 | 0.19 | 93 | 1009.3 |
| 20260903025327 | 56 | 163 | 0.0 | 0.0 | 0.00 | 0.19 | 0.19 | 93 | 1009.1 |
| 20260903024827 | 56 | 149 | 0.0 | 0.9 | 0.00 | 0.19 | 0.19 | 93 | 1009.2 |
| 20260903024326 | 56 | 145 | 0.0 | 0.0 | 0.00 | 0.19 | 0.19 | 92 | 1009.2 |
| 20260903023822 | 56 | 157 | 0.0 | 0.9 | 0.00 | 0.19 | 0.19 | 92 | 1008.9 |
| 20260903023317 | 56 | 153 | 0.0 | 0.9 | 0.00 | 0.19 | 0.19 | 91 | 1008.9 |
| 20260903022812 | 57 | 117 | 0.9 | 1.7 | 0.00 | 0.19 | 0.19 | 90 | 1008.9 |
| 20260903022310 | 57 | 110 | 1.7 | 2.6 | 0.00 | 0.19 | 0.19 | 89 | 1008.9 |
| 20260903021804 | 58 | 125 | 0.9 | 1.7 | 0.00 | 0.19 | 0.19 | 88 | 1008.8 |
| 20260903021301 | 59 | 155 | 0.0 | 0.9 | 0.00 | 0.19 | 0.19 | 87 | 1008.6 |
| 20260903020801 | 59 | 131 | 0.9 | 0.9 | 0.00 | 0.19 | 0.19 | 84 | 1008.6 |
| 20260903020255 | 59 | 175 | 0.0 | 0.9 | 0.00 | 0.19 | 0.19 | 83 | 1008.5 |
| 20260903015751 | 59 | 181 | 0.9 | 2.6 | 0.00 | 0.19 | 0.19 | 82 | 1008.6 |
| 20260903015246 | 60 | 187 | 1.7 | 2.6 | 0.00 | 0.19 | 0.19 | 81 | 1008.5 |
| 20260903014741 | 60 | 197 | 4.3 | 7.8 | 0.00 | 0.19 | 0.19 | 81 | 1008.6 |
| 20260903014240 | 60 | 197 | 1.7 | 4.3 | 0.00 | 0.19 | 0.19 | 82 | 1008.6 |
| 20260903013736 | 61 | 166 | 2.6 | 2.6 | 0.00 | 0.19 | 0.19 | 82 | 1008.5 |
| 20260903013235 | 60 | 174 | 1.7 | 1.7 | 0.00 | 0.19 | 0.19 | 83 | 1008.4 |
| 20260903012734 | 61 | 206 | 1.7 | 6.1 | 0.00 | 0.19 | 0.19 | 84 | 1008.4 |
| 20260903012234 | 60 | 169 | 1.7 | 5.2 | 0.00 | 0.19 | 0.19 | 86 | 1008.2 |
| 20260903011728 | 60 | 222 | 4.3 | 7.8 | 0.00 | 0.19 | 0.19 | 86 | 1008.3 |
| 20260903011222 | 60 | 187 | 3.5 | 13.0 | 0.00 | 0.19 | 0.19 | 85 | 1008.5 |
| 20260903010718 | 60 | 211 | 7.0 | 8.7 | 0.00 | 0.19 | 0.19 | 88 | 1008.4 |
| 20260903010217 | 60 | 185 | 1.7 | 6.1 | 0.00 | 0.19 | 0.19 | 88 | 1007.9 |
| 20260903005717 | 60 | 175 | 3.5 | 6.1 | 0.00 | 0.19 | 0.19 | 89 | 1007.9 |
| 20260903005212 | 60 | 205 | 3.5 | 5.2 | 0.00 | 0.19 | 0.19 | 90 | 1007.9 |
| 20260903004708 | 60 | 164 | 1.7 | 6.1 | 0.00 | 0.19 | 0.19 | 92 | 1007.9 |
| 20260903004203 | 60 | 189 | 4.3 | 6.1 | 0.00 | 0.19 | 0.19 | 93 | 1007.6 |
| 20260903003658 | 60 | 164 | 3.5 | 5.2 | 0.00 | 0.19 | 0.19 | 94 | 1007.7 |
| 20260903003152 | 60 | 149 | 0.9 | 5.2 | 0.07 | 0.19 | 0.19 | 94 | 1007.8 |
| 20260903002648 | 59 | 188 | 0.9 | 1.7 | 0.05 | 0.18 | 0.18 | 94 | 1007.7 |
| 20260903002142 | 59 | 143 | 1.7 | 1.7 | 0.24 | 0.18 | 0.18 | 94 | 1007.8 |
| 20260903001637 | 60 | 187 | 2.6 | 2.6 | 0.12 | 0.16 | 0.16 | 93 | 1007.8 |
| 20260903001136 | 60 | 169 | 2.6 | 2.6 | 0.00 | 0.14 | 0.14 | 94 | 1007.9 |
| 20260903000632 | 60 | 180 | 0.0 | 0.9 | 0.00 | 0.14 | 0.14 | 94 | 1007.4 |
| 20260903000126 | 60 | 159 | 0.9 | 0.9 | 0.00 | 0.14 | 0.14 | 93 | 1007.4 |
| 20260902235625 | 60 | 164 | 0.0 | 0.0 | 0.00 | 0.14 | 0.14 | 94 | 1007.2 |
| 20260902235120 | 60 | 183 | 0.0 | 0.0 | 0.00 | 0.14 | 0.14 | 93 | 1007.4 |
| 20260902234614 | 60 | 143 | 0.0 | 0.0 | 0.00 | 0.14 | 0.14 | 94 | 1007.3 |
| 20260902234112 | 60 | 179 | 0.0 | 0.0 | 0.00 | 0.14 | 0.14 | 94 | 1007.3 |
| 20260902233608 | 60 | 142 | 0.0 | 0.0 | 0.00 | 0.14 | 0.14 | 94 | 1007.2 |
| 20260902233103 | 60 | 195 | 0.0 | 0.0 | 0.00 | 0.14 | 0.14 | 94 | 1007.1 |
| 20260902232601 | 59 | 164 | 0.0 | 0.0 | 0.00 | 0.14 | 0.14 | 94 | 1007.0 |
| 20260902232055 | 59 | 153 | 0.0 | 0.0 | 0.00 | 0.14 | 0.14 | 94 | 1007.1 |
| 20260902231550 | 59 | 118 | 0.9 | 1.7 | 0.00 | 0.14 | 0.14 | 94 | 1007.1 |
| 20260902231044 | 59 | 175 | 0.9 | 1.7 | 0.05 | 0.14 | 0.14 | 94 | 1007.2 |
| 20260902230539 | 59 | 155 | 0.0 | 0.0 | 0.00 | 0.13 | 0.13 | 93 | 1007.3 |
| 20260902230038 | 59 | 158 | 0.9 | 0.9 | 0.07 | 0.13 | 0.13 | 93 | 1007.4 |
| 20260902225533 | 59 | 126 | 0.9 | 0.9 | 0.12 | 0.13 | 0.13 | 93 | 1007.4 |
| 20260902225032 | 59 | 153 | 0.0 | 0.9 | 0.12 | 0.12 | 0.12 | 93 | 1007.5 |
| 20260902224531 | 59 | 163 | 0.0 | 0.0 | 0.07 | 0.11 | 0.11 | 93 | 1007.5 |
| 20260902224027 | 59 | 147 | 0.0 | 0.0 | 0.05 | 0.10 | 0.10 | 92 | 1007.4 |
| 20260902223523 | 59 | 149 | 0.0 | 0.0 | 0.00 | 0.09 | 0.09 | 92 | 1007.6 |
| 20260902223022 | 59 | 152 | 0.0 | 0.0 | 0.07 | 0.09 | 0.09 | 92 | 1007.5 |
| 20260902222521 | 59 | 143 | 0.0 | 0.9 | 0.00 | 0.08 | 0.08 | 91 | 1007.3 |
| 20260902222020 | 59 | 175 | 0.0 | 0.0 | 0.07 | 0.08 | 0.08 | 91 | 1007.6 |
| 20260902221515 | 60 | 153 | 0.0 | 0.0 | 0.07 | 0.08 | 0.08 | 91 | 1007.5 |
| 20260902221011 | 59 | 153 | 0.0 | 0.0 | 0.05 | 0.07 | 0.07 | 91 | 1007.3 |
| 20260902220506 | 59 | 133 | 0.9 | 0.9 | 0.05 | 0.07 | 0.07 | 90 | 1007.5 |
| 20260902220000 | 59 | 175 | 0.9 | 0.9 | 0.00 | 0.06 | 0.06 | 90 | 1007.5 |
| 20260902215456 | 59 | 163 | 0.0 | 1.7 | 0.07 | 0.06 | 0.06 | 88 | 1007.7 |
| 20260902214951 | 60 | 163 | 0.9 | 0.9 | 0.07 | 0.06 | 0.06 | 88 | 1007.5 |
| 20260902214451 | 60 | 156 | 0.9 | 0.9 | 0.05 | 0.05 | 0.05 | 87 | 1007.5 |
| 20260902213950 | 60 | 158 | 0.9 | 0.9 | 0.05 | 0.05 | 0.05 | 87 | 1007.5 |
| 20260902213447 | 60 | 193 | 1.7 | 2.6 | 0.07 | 0.04 | 0.04 | 85 | 1007.6 |
| 20260902212944 | 60 | 148 | 0.9 | 1.7 | 0.00 | 0.03 | 0.03 | 84 | 1007.6 |
| 20260902212441 | 60 | 193 | 0.9 | 1.7 | 0.00 | 0.03 | 0.03 | 84 | 1007.7 |
| 20260902211932 | 60 | 230 | 1.7 | 2.6 | 0.05 | 0.03 | 0.03 | 83 | 1007.7 |
| 20260902211427 | 60 | 171 | 0.9 | 2.6 | 0.05 | 0.03 | 0.03 | 82 | 1007.6 |
| 20260902210917 | 61 | 164 | 1.7 | 2.6 | 0.00 | 0.02 | 0.02 | 82 | 1007.6 |
| 20260902210417 | 61 | 152 | 2.6 | 2.6 | 0.00 | 0.02 | 0.02 | 81 | 1007.9 |
| 20260902205915 | 61 | 202 | 2.6 | 4.3 | 0.07 | 0.02 | 0.02 | 81 | 1007.5 |
| 20260902205409 | 62 | 178 | 0.0 | 0.9 | 0.07 | 0.02 | 0.02 | 80 | 1007.5 |
| 20260902204905 | 62 | 197 | 3.5 | 6.1 | 0.00 | 0.01 | 0.01 | 77 | 1007.6 |
| 20260902204404 | 63 | 168 | 4.3 | 5.2 | 0.00 | 0.01 | 0.01 | 76 | 1007.7 |
| 20260902203900 | 63 | 185 | 4.3 | 5.2 | 0.00 | 0.01 | 0.01 | 74 | 1007.6 |
| 20260902203356 | 64 | 173 | 2.6 | 4.3 | 0.00 | 0.01 | 0.01 | 72 | 1007.6 |
| 20260902202850 | 64 | 188 | 4.3 | 7.0 | 0.00 | 0.01 | 0.01 | 72 | 1007.5 |
| 20260902202345 | 65 | 188 | 4.3 | 6.1 | 0.00 | 0.01 | 0.01 | 71 | 1007.4 |
| 20260902201842 | 65 | 178 | 2.6 | 7.0 | 0.00 | 0.01 | 0.01 | 71 | 1007.6 |
| 20260902201336 | 65 | 198 | 3.5 | 5.2 | 0.00 | 0.01 | 0.01 | 73 | 1007.7 |
| 20260902200831 | 65 | 191 | 1.7 | 5.2 | 0.00 | 0.01 | 0.01 | 72 | 1007.4 |
| 20260902200326 | 64 | 196 | 2.6 | 2.6 | 0.00 | 0.01 | 0.01 | 74 | 1007.6 |
| 20260902195822 | 64 | 224 | 4.3 | 7.8 | 0.00 | 0.01 | 0.01 | 74 | 1007.5 |
| 20260902195321 | 64 | 178 | 1.7 | 2.6 | 0.00 | 0.01 | 0.01 | 75 | 1007.7 |
| 20260902194815 | 64 | 157 | 1.7 | 4.3 | 0.00 | 0.01 | 0.01 | 77 | 1007.7 |
| 20260902194310 | 63 | 165 | 0.9 | 2.6 | 0.00 | 0.01 | 0.01 | 78 | 1007.8 |
| 20260902193806 | 62 | 180 | 3.5 | 5.2 | 0.00 | 0.01 | 0.01 | 78 | 1007.9 |
| 20260902193301 | 62 | 193 | 0.9 | 7.0 | 0.00 | 0.01 | 0.01 | 81 | 1008.0 |
| 20260902192800 | 62 | 133 | 0.9 | 2.6 | 0.05 | 0.01 | 0.01 | 81 | 1008.0 |
| 20260902192259 | 62 | 206 | 0.9 | 2.6 | 0.05 | 0.01 | 0.01 | 80 | 1008.1 |
| 20260902191758 | 63 | 133 | 5.2 | 7.0 | 0.00 | 0.00 | 0.00 | 77 | 1007.8 |
| 20260902191254 | 64 | 247 | 7.8 | 17.4 | 0.00 | 0.00 | 0.00 | 72 | 1008.0 |
| 20260902190749 | 66 | 246 | 6.1 | 11.3 | 0.00 | 0.00 | 0.00 | 69 | 1008.1 |
| 20260902190249 | 69 | 208 | 4.3 | 12.2 | 0.00 | 0.00 | 0.00 | 63 | 1008.3 |
| 20260902185744 | 69 | 143 | 1.7 | 4.3 | 0.00 | 0.00 | 0.00 | 56 | 1007.7 |
| 20260902185240 | 69 | 205 | 2.6 | 6.1 | 0.00 | 0.00 | 0.00 | 57 | 1007.7 |
| 20260902184736 | 69 | 167 | 4.3 | 6.1 | 0.00 | 0.00 | 0.00 | 57 | 1007.7 |
| 20260902184231 | 69 | 259 | 6.1 | 8.7 | 0.00 | 0.00 | 0.00 | 56 | 1007.9 |
| 20260902183727 | 70 | 211 | 3.5 | 4.3 | 0.00 | 0.00 | 0.00 | 58 | 1007.8 |
| 20260902183223 | 71 | 221 | 4.3 | 6.1 | 0.00 | 0.00 | 0.00 | 58 | 1008.0 |
| 20260902182719 | 70 | 163 | 0.9 | 0.9 | 0.00 | 0.00 | 0.00 | 61 | 1007.9 |
| 20260902182216 | 68 | 126 | 0.9 | 1.7 | 0.00 | 0.00 | 0.00 | 65 | 1007.8 |
| 20260902181712 | 67 | 70 | 1.7 | 4.3 | 0.00 | 0.00 | 0.00 | 65 | 1008.1 |
| 20260902181211 | 67 | 128 | 1.7 | 1.7 | 0.00 | 0.00 | 0.00 | 66 | 1008.0 |
| 20260902180711 | 66 | 149 | 0.9 | 2.6 | 0.00 | 0.00 | 0.00 | 68 | 1008.3 |
| 20260902180207 | 66 | 132 | 0.9 | 0.9 | 0.00 | 0.00 | 0.00 | 74 | 1008.1 |
| 20260902175702 | 65 | 153 | 0.0 | 0.9 | 0.00 | 0.00 | 0.00 | 75 | 1008.3 |
| 20260902175158 | 64 | 150 | 0.0 | 0.9 | 0.00 | 0.00 | 0.00 | 74 | 1008.3 |
| 20260902174654 | 64 | 152 | 0.0 | 0.9 | 0.00 | 0.00 | 0.00 | 78 | 1008.4 |
| 20260902174149 | 64 | 148 | 0.0 | 0.9 | 0.00 | 0.00 | 0.00 | 78 | 1008.5 |
| 20260902173644 | 64 | 119 | 0.9 | 1.7 | 0.00 | 0.00 | 0.00 | 75 | 1008.4 |
| 20260902173139 | 64 | 137 | 0.9 | 0.9 | 0.00 | 0.00 | 0.00 | 76 | 1008.6 |
| 20260902172638 | 64 | 139 | 0.0 | 0.9 | 0.00 | 0.00 | 0.00 | 76 | 1008.6 |
| 20260902172138 | 64 | 138 | 0.9 | 0.9 | 0.00 | 0.00 | 0.00 | 76 | 1008.5 |
| 20260902171633 | 64 | 160 | 0.0 | 0.9 | 0.00 | 0.00 | 0.00 | 78 | 1008.5 |
| 20260902171129 | 64 | 134 | 0.0 | 0.9 | 0.00 | 0.00 | 0.00 | 77 | 1008.9 |
| 20260902170626 | 64 | 144 | 0.0 | 0.9 | 0.00 | 0.00 | 0.00 | 78 | 1008.6 |
| 20260902170121 | 64 | 148 | 0.0 | 0.0 | 0.00 | 0.00 | 0.00 | 77 | 1008.8 |
| 20260902165620 | 63 | 152 | 0.0 | 0.0 | 0.00 | 0.00 | 0.00 | 78 | 1009.0 |
| 20260902165114 | 63 | 152 | 0.0 | 0.0 | 0.00 | 0.00 | 0.00 | 79 | 1008.8 |
| 20260902164609 | 63 | 152 | 0.0 | 0.0 | 0.00 | 0.00 | 0.00 | 78 | 1008.9 |
| 20260902164108 | 63 | 152 | 0.0 | 0.0 | 0.00 | 0.00 | 0.00 | 77 | 1008.9 |
| 20260902163604 | 63 | 155 | 0.0 | 0.9 | 0.00 | 0.00 | 0.00 | 76 | 1009.1 |
| 20260902163102 | 64 | 156 | 0.0 | 0.9 | 0.00 | 0.00 | 0.00 | 76 | 1009.0 |
| 20260902162602 | 63 | 162 | 0.9 | 1.7 | 0.00 | 0.00 | 0.00 | 73 | 1009.2 |
| 20260902162057 | 64 | 203 | 0.9 | 1.7 | 0.00 | 0.00 | 0.00 | 73 | 1009.1 |
| 20260902161552 | 64 | 162 | 0.0 | 0.9 | 0.00 | 0.00 | 0.00 | 74 | 1009.1 |
| 20260902161048 | 64 | 173 | 0.9 | 1.7 | 0.00 | 0.00 | 0.00 | 73 | 1009.4 |
| 20260902160543 | 64 | 169 | 1.7 | 4.3 | 0.00 | 0.00 | 0.00 | 73 | 1009.3 |
| 20260902160039 | 64 | 158 | 0.9 | 0.9 | 0.00 | 0.00 | 0.00 | 77 | 1009.3 |
| 20260902155532 | 64 | 153 | 0.9 | 2.6 | 0.00 | 0.00 | 0.00 | 76 | 1009.3 |
| 20260902155031 | 63 | 149 | 0.0 | 0.9 | 0.00 | 0.00 | 0.00 | 77 | 1009.5 |
| 20260902154526 | 63 | 124 | 0.9 | 0.9 | 0.00 | 0.00 | 0.00 | 78 | 1009.5 |
| 20260902154021 | 64 | 112 | 1.7 | 4.3 | 0.00 | 0.00 | 0.00 | 77 | 1009.4 |
| 20260902153519 | 64 | 146 | 0.9 | 2.6 | 0.00 | 0.00 | 0.00 | 81 | 1009.5 |
| 20260902153015 | 62 | 155 | 0.0 | 2.6 | 0.00 | 0.00 | 0.00 | 84 | 1009.8 |
| 20260902152512 | 62 | 118 | 0.9 | 2.6 | 0.00 | 0.00 | 0.00 | 88 | 1009.6 |
| 20260902152007 | 61 | 117 | 1.7 | 2.6 | 0.00 | 0.00 | 0.00 | 93 | 1009.7 |
| 20260902151503 | 60 | 164 | 0.0 | 2.6 | 0.00 | 0.00 | 0.00 | 94 | 1009.7 |
| 20260902151002 | 59 | 156 | 0.0 | 0.0 | 0.00 | 0.00 | 0.00 | 95 | 1009.8 |
| 20260902150458 | 59 | 135 | 0.0 | 0.0 | 0.00 | 0.00 | 0.00 | 96 | 1009.8 |
| 20260902145958 | 58 | 156 | 0.0 | 0.0 | 0.00 | 0.00 | 0.00 | 96 | 1009.9 |
| 20260902145453 | 58 | 156 | 0.0 | 0.0 | 0.00 | 0.00 | 0.00 | 96 | 1010.0 |
| 20260902144947 | 57 | 153 | 0.0 | 0.0 | 0.00 | 0.00 | 0.00 | 97 | 1010.2 |
| 20260902144444 | 57 | 145 | 0.0 | 0.0 | 0.00 | 0.00 | 0.00 | 97 | 1010.3 |
| 20260902143943 | 56 | 136 | 0.0 | 0.0 | 0.00 | 0.00 | 0.00 | 97 | 1010.2 |
| 20260902143439 | 56 | 156 | 0.0 | 0.0 | 0.00 | 0.00 | 0.00 | 97 | 1010.4 |
| 20260902142934 | 56 | 132 | 0.0 | 0.0 | 0.00 | 0.00 | 0.00 | 97 | 1010.3 |
| 20260902142430 | 56 | 127 | 0.0 | 0.0 | 0.00 | 0.00 | 0.00 | 96 | 1010.5 |
| 20260902141925 | 56 | 148 | 0.0 | 0.0 | 0.00 | 0.00 | 0.00 | 97 | 1010.4 |
| 20260902141420 | 56 | 140 | 0.0 | 0.0 | 0.00 | 0.00 | 0.00 | 97 | 1010.4 |
| 20260902140920 | 55 | 149 | 0.0 | 0.0 | 0.00 | 0.00 | 0.00 | 96 | 1010.6 |
| 20260902140416 | 55 | 149 | 0.0 | 0.0 | 0.00 | 0.00 | 0.00 | 96 | 1010.6 |
| 20260902135915 | 55 | 156 | 0.0 | 0.0 | 0.00 | 0.00 | 0.00 | 96 | 1010.5 |
| 20260902135412 | 55 | 147 | 0.0 | 0.0 | 0.00 | 0.00 | 0.00 | 97 | 1010.4 |
| 20260902134910 | 55 | 145 | 0.0 | 0.0 | 0.00 | 0.00 | 0.00 | 97 | 1010.4 |
| 20260902134406 | 55 | 153 | 0.0 | 0.0 | 0.00 | 0.00 | 0.00 | 96 | 1010.4 |
| 20260902133901 | 55 | 148 | 0.0 | 0.0 | 0.00 | 0.00 | 0.00 | 96 | 1010.6 |
| 20260902133400 | 55 | 160 | 0.0 | 0.0 | 0.00 | 0.00 | 0.00 | 96 | 1010.4 |
| 20260902132855 | 55 | 147 | 0.0 | 0.0 | 0.00 | 0.00 | 0.00 | 96 | 1010.3 |
| 20260902132350 | 55 | 147 | 0.0 | 0.0 | 0.00 | 0.00 | 0.00 | 96 | 1010.3 |
| 20260902131846 | 55 | 148 | 0.0 | 0.0 | 0.00 | 0.00 | 0.00 | 96 | 1010.4 |
| 20260902131343 | 56 | 124 | 0.0 | 0.0 | 0.00 | 0.00 | 0.00 | 96 | 1010.6 |
| 20260902130841 | 56 | 139 | 0.0 | 0.0 | 0.00 | 0.00 | 0.00 | 96 | 1010.5 |
| 20260902130338 | 56 | 156 | 0.0 | 0.0 | 0.00 | 0.00 | 0.00 | 96 | 1010.7 |
| 20260902125832 | 56 | 141 | 0.0 | 0.0 | 0.00 | 0.00 | 0.00 | 96 | 1010.6 |
| 20260902125329 | 57 | 149 | 0.0 | 0.0 | 0.00 | 0.00 | 0.00 | 96 | 1010.9 |
| 20260902124825 | 57 | 149 | 0.0 | 0.0 | 0.00 | 0.00 | 0.00 | 96 | 1010.8 |
| 20260902124320 | 57 | 149 | 0.0 | 0.0 | 0.00 | 0.00 | 0.00 | 96 | 1010.8 |
| 20260902123815 | 57 | 132 | 0.0 | 0.0 | 0.00 | 0.00 | 0.00 | 96 | 1010.8 |
| 20260902123312 | 57 | 149 | 0.0 | 0.0 | 0.00 | 0.00 | 0.00 | 96 | 1010.9 |
| 20260902122810 | 57 | 148 | 0.0 | 0.0 | 0.00 | 0.00 | 0.00 | 96 | 1010.7 |
| 20260902122306 | 57 | 147 | 0.0 | 0.0 | 0.00 | 0.00 | 0.00 | 96 | 1010.9 |
| 20260902121806 | 57 | 145 | 0.0 | 0.0 | 0.00 | 0.00 | 0.00 | 96 | 1010.9 |
| 20260902121301 | 57 | 146 | 0.0 | 0.0 | 0.00 | 0.00 | 0.00 | 96 | 1010.9 |
| 20260902120751 | 57 | 155 | 0.0 | 0.0 | 0.00 | 0.00 | 0.00 | 96 | 1011.3 |
| 20260902120247 | 57 | 156 | 0.0 | 0.0 | 0.00 | 0.00 | 0.00 | 96 | 1011.1 |
| 20260902115747 | 57 | 156 | 0.0 | 0.0 | 0.00 | 0.00 | 0.00 | 96 | 1011.3 |
| 20260902115243 | 57 | 148 | 0.0 | 0.0 | 0.00 | 0.00 | 0.00 | 96 | 1011.1 |
| 20260902114739 | 57 | 149 | 0.0 | 0.0 | 0.00 | 0.00 | 0.00 | 96 | 1011.2 |
| 20260902114235 | 57 | 140 | 0.0 | 0.0 | 0.00 | 0.00 | 0.00 | 96 | 1011.3 |
| 20260902113729 | 57 | 147 | 0.0 | 0.0 | 0.00 | 0.00 | 0.00 | 96 | 1011.2 |
| 20260902113225 | 57 | 151 | 0.0 | 0.0 | 0.00 | 0.00 | 0.00 | 96 | 1011.0 |
| 20260902112724 | 57 | 153 | 0.0 | 0.0 | 0.00 | 0.00 | 0.00 | 96 | 1011.3 |
| 20260902112221 | 57 | 154 | 0.0 | 0.0 | 0.00 | 0.00 | 0.00 | 96 | 1011.3 |
| 20260902111716 | 57 | 154 | 0.0 | 0.0 | 0.00 | 0.00 | 0.00 | 96 | 1011.3 |
| 20260902111213 | 57 | 148 | 0.0 | 0.0 | 0.00 | 0.00 | 0.00 | 96 | 1011.3 |
| 20260902110708 | 57 | 148 | 0.0 | 0.0 | 0.00 | 0.00 | 0.00 | 96 | 1011.5 |
| 20260902110204 | 57 | 138 | 0.0 | 0.0 | 0.00 | 0.00 | 0.00 | 96 | 1011.6 |
| 20260902105703 | 57 | 144 | 0.0 | 0.0 | 0.00 | 0.00 | 0.00 | 96 | 1011.5 |
| 20260902105159 | 57 | 156 | 0.0 | 0.0 | 0.00 | 0.00 | 0.00 | 96 | 1011.7 |
| 20260902104654 | 57 | 156 | 0.0 | 0.0 | 0.00 | 0.00 | 0.00 | 96 | 1011.4 |
| 20260902104150 | 57 | 157 | 0.0 | 0.0 | 0.00 | 0.00 | 0.00 | 96 | 1011.5 |
| 20260902103649 | 57 | 153 | 0.0 | 0.0 | 0.00 | 0.00 | 0.00 | 96 | 1011.5 |
| 20260902103144 | 57 | 170 | 0.0 | 0.0 | 0.00 | 0.00 | 0.00 | 95 | 1011.6 |
| 20260902102640 | 57 | 161 | 0.0 | 0.0 | 0.00 | 0.00 | 0.00 | 95 | 1011.7 |
| 20260902102137 | 57 | 148 | 0.0 | 0.0 | 0.00 | 0.00 | 0.00 | 95 | 1011.8 |
| 20260902101632 | 57 | 148 | 0.0 | 0.0 | 0.00 | 0.00 | 0.00 | 95 | 1011.8 |
| 20260902101126 | 57 | 147 | 0.0 | 0.0 | 0.00 | 0.00 | 0.00 | 95 | 1012.0 |
| 20260902100621 | 57 | 156 | 0.0 | 0.0 | 0.00 | 0.00 | 0.00 | 95 | 1011.7 |
| 20260902100116 | 57 | 140 | 0.0 | 0.0 | 0.00 | 0.00 | 0.00 | 95 | 1012.0 |
| 20260902095615 | 57 | 148 | 0.0 | 0.0 | 0.00 | 0.00 | 0.00 | 95 | 1011.8 |
| 20260902095115 | 57 | 148 | 0.0 | 0.0 | 0.00 | 0.00 | 0.00 | 95 | 1011.9 |
| 20260902094610 | 57 | 143 | 0.0 | 0.0 | 0.00 | 0.00 | 0.00 | 95 | 1011.7 |
| 20260902094106 | 57 | 140 | 0.0 | 0.0 | 0.00 | 0.00 | 0.00 | 94 | 1012.0 |
| 20260902093605 | 57 | 137 | 0.0 | 0.0 | 0.00 | 0.00 | 0.00 | 94 | 1011.9 |
| 20260902093100 | 58 | 147 | 0.0 | 0.0 | 0.00 | 0.00 | 0.00 | 94 | 1012.1 |
| 20260902092555 | 58 | 149 | 0.0 | 0.0 | 0.00 | 0.00 | 0.00 | 94 | 1011.7 |
| 20260902092050 | 58 | 156 | 0.0 | 0.0 | 0.00 | 0.00 | 0.00 | 94 | 1011.6 |
| 20260902091545 | 59 | 154 | 0.0 | 0.0 | 0.00 | 0.00 | 0.00 | 93 | 1011.8 |
| 20260902091041 | 59 | 145 | 0.0 | 0.0 | 0.00 | 0.00 | 0.00 | 93 | 1012.0 |
| 20260902090537 | 59 | 160 | 0.0 | 0.0 | 0.00 | 0.00 | 0.00 | 93 | 1011.9 |
| 20260902090036 | 59 | 148 | 0.0 | 0.0 | 0.00 | 0.00 | 0.00 | 93 | 1011.9 |
| 20260902085530 | 59 | 148 | 0.0 | 0.0 | 0.00 | 0.00 | 0.00 | 93 | 1012.2 |
| 20260902085025 | 59 | 155 | 0.0 | 0.0 | 0.00 | 0.00 | 0.00 | 93 | 1012.3 |
| 20260902084521 | 59 | 131 | 0.0 | 0.0 | 0.00 | 0.00 | 0.00 | 94 | 1012.0 |
| 20260902084017 | 59 | 156 | 0.0 | 0.9 | 0.00 | 0.00 | 0.00 | 94 | 1012.4 |
| 20260902083512 | 59 | 156 | 0.0 | 0.9 | 0.00 | 0.00 | 0.00 | 95 | 1012.5 |
| 20260902083006 | 59 | 215 | 2.6 | 2.6 | 0.00 | 0.00 | 0.00 | 95 | 1012.6 |
| 20260902082502 | 59 | 176 | 0.9 | 1.7 | 0.00 | 0.00 | 0.00 | 95 | 1012.5 |
| 20260902081958 | 59 | 149 | 0.0 | 0.0 | 0.00 | 0.00 | 0.00 | 95 | 1012.6 |
| 20260902081455 | 59 | 155 | 0.0 | 0.0 | 0.00 | 0.00 | 0.00 | 95 | 1012.4 |
| 20260902080949 | 59 | 154 | 0.0 | 0.0 | 0.00 | 0.00 | 0.00 | 95 | 1012.5 |
| 20260902080445 | 59 | 155 | 0.0 | 0.0 | 0.00 | 0.00 | 0.00 | 95 | 1012.3 |
| 20260902075939 | 59 | 152 | 0.0 | 0.0 | 0.00 | 0.00 | 0.00 | 95 | 1012.6 |
| 20260902075436 | 59 | 154 | 0.0 | 0.0 | 0.00 | 0.00 | 0.00 | 95 | 1012.5 |
| 20260902074931 | 59 | 150 | 0.0 | 0.0 | 0.00 | 0.00 | 0.00 | 95 | 1012.5 |
| 20260902074426 | 59 | 158 | 0.0 | 0.0 | 0.00 | 0.00 | 0.00 | 94 | 1012.4 |
| 20260902073921 | 59 | 151 | 0.0 | 0.0 | 0.00 | 0.00 | 0.00 | 94 | 1012.6 |
| 20260902073417 | 59 | 142 | 0.0 | 0.0 | 0.00 | 0.00 | 0.00 | 94 | 1012.7 |
| 20260902072913 | 59 | 155 | 0.0 | 0.0 | 0.00 | 0.00 | 0.00 | 94 | 1012.4 |
| 20260902072409 | 59 | 148 | 0.0 | 0.0 | 0.00 | 0.00 | 0.00 | 94 | 1012.7 |
| 20260902071905 | 59 | 149 | 0.0 | 0.0 | 0.00 | 0.00 | 0.00 | 94 | 1012.6 |
| 20260902071404 | 59 | 148 | 0.0 | 0.0 | 0.00 | 0.00 | 0.00 | 93 | 1012.4 |
| 20260902070901 | 59 | 163 | 0.0 | 0.9 | 0.00 | 0.00 | 0.00 | 93 | 1012.6 |
| 20260902070356 | 59 | 154 | 0.0 | 0.0 | 0.00 | 0.00 | 0.00 | 93 | 1012.4 |
| 20260902065854 | 59 | 154 | 0.0 | 0.0 | 0.00 | 0.01 | 0.01 | 93 | 1012.8 |
| 20260902065349 | 59 | 149 | 0.0 | 0.9 | 0.00 | 0.01 | 0.01 | 93 | 1012.7 |
| 20260902064844 | 59 | 155 | 0.9 | 0.9 | 0.00 | 0.01 | 0.01 | 93 | 1012.7 |
| 20260902064341 | 59 | 148 | 0.0 | 0.0 | 0.00 | 0.01 | 0.01 | 92 | 1012.7 |
| 20260902063836 | 59 | 149 | 0.0 | 0.0 | 0.00 | 0.01 | 0.01 | 92 | 1012.8 |
| 20260902063331 | 59 | 147 | 0.0 | 0.0 | 0.00 | 0.01 | 0.01 | 92 | 1012.9 |
| 20260902062830 | 59 | 151 | 0.0 | 0.0 | 0.00 | 0.01 | 0.01 | 92 | 1012.9 |
| 20260902062325 | 60 | 156 | 0.0 | 0.9 | 0.00 | 0.01 | 0.01 | 92 | 1012.9 |
| 20260902061825 | 60 | 153 | 0.0 | 0.0 | 0.00 | 0.01 | 0.01 | 91 | 1012.9 |
| 20260902061320 | 60 | 148 | 0.0 | 0.9 | 0.00 | 0.01 | 0.01 | 91 | 1012.8 |
| 20260902060816 | 60 | 159 | 0.0 | 0.0 | 0.00 | 0.01 | 0.01 | 91 | 1013.1 |
| 20260902060312 | 60 | 160 | 0.0 | 0.0 | 0.00 | 0.01 | 0.01 | 90 | 1012.9 |
| 20260902055807 | 60 | 154 | 0.0 | 0.9 | 0.00 | 0.01 | 0.01 | 90 | 1012.8 |
| 20260902055258 | 60 | 131 | 1.7 | 1.7 | 0.00 | 0.01 | 0.01 | 90 | 1012.9 |
| 20260902054758 | 60 | 170 | 0.9 | 0.9 | 0.00 | 0.01 | 0.01 | 90 | 1013.1 |
| 20260902054254 | 60 | 170 | 0.0 | 0.9 | 0.00 | 0.01 | 0.01 | 89 | 1013.0 |
| 20260902053749 | 60 | 178 | 0.9 | 1.7 | 0.00 | 0.01 | 0.01 | 89 | 1013.2 |